Location: Csohesd
(46.2500°N, 22.6167°E)
Time: 06:05:51
(UTC+00:00)

YAOGAN 1 - Pass Details

Date: 21 October 2021
Orbit: 618 x 620 km, 97.9° (Epoch: 04 December)

Event Time Altitude Azimuth Distance (km) Brightness Sun altitude
Rises 16:15:20 0° 133° (SE) 2,887 5.6 -8.1°
Reaches altitude 10° 16:17:48 10° 120° (ESE) 1,986 4.7 -8.5°
Maximum altitude 16:21:19 25° 66° (ENE) 1,262 3.6 -9.1°
Drops below altitude 10° 16:24:52 10° 11° (N) 1,999 5.0 -9.7°
Sets 16:27:21 0° 358° (N) 2,910 6.0 -10.2°
